Torna al catalogo

STARLINK-5248

AttivoComunicazioniVLEO
NORAD 54174·PAYLOAD·🇺🇸 United States

Lanciato Oct 28, 2022 da Vandenberg Space Force Base

Loading…

Prossimi Passaggi (prossime 24 ore)

TLE

AggiornatoSource: CelesTrak SupGP

Epoca: Sep 14, 2026, 21:00 UTC

1 54174C 22141T   26257.87548611 -.00026076  00000+0 -74555-3 0  2571
2 54174  53.1574 168.1503 0001511  68.7519  53.3900 15.35432512    18

Traccia STARLINK-5248 in tempo reale con AllMySat

Download on the App Store